Weather in Floro

Norway     61°35′58″N   5°01′48″E
temp.,
°C
wind,
m/s
gust,
m/s
humid.,
%
clouds,
%
prec.,
mm/h
press.,
hPa
HPBL,
m
22 april, thu
thu2223:00+4nnw8106173 0.0 10191379
02:00+4n456988 0.1 1019783
05:00+5nnw676799 0.5 10191165
08:00+4nnw9106141 0.6 10201531
11:00+4nnw996253 0.1 10221474
14:00+4nnw9106333 0.1 10231377
17:00+5nnw996371 0.0 10241338
20:00+4n787495 0.1 1024976
23 april, fri
fri2323:00+3nnw788296 0.3 1025847
02:00+3n677999 0.7 1025863
05:00+3n676875 0.3 10251032
08:00+4n675891 0.4 10261397
11:00+4n775361 0.1 10271644
14:00+5nnw885740 0.1 10281509
17:00+4n910657 0.0 10281176
20:00+4n910645 0.0 10291217
24 april, sat
sat2423:00+4n89634 0.0 10291108
02:00+3nne79626 0.0 10291247
05:00+3nne79626 0.0 10301189
08:00+3nne69593 0.0 10301272
11:00+4n79556 0.0 10301424
14:00+4n1010579 0.0 10301155
17:00+5n1110582 0.0 10301010
20:00+5n1010594 0.0 1030957
25 april, sun
sun2523:00+4n88610 0.0 1030804
02:00+3nne67620 0.0 1029686
05:00+3nne57635 0.0 1029627
08:00+3nne46605 0.0 1028593
11:00+4n55555 0.0 1028612
14:00+4n77620 0.0 1027583
17:00+5nnw886441 0.0 1026523
20:00+5nnw886462 0.0 1024496
26 april, mon
mon2623:00+5n66675 0.0 1023385
02:00+4ne23691 0.0 1022306
05:00+3ne23661 0.0 1021326
08:00+4ne33600 0.0 1020354
11:00+5n33530 0.0 1020373
14:00+6n54550 0.0 1019411
17:00+6n76650 0.0 1018325
20:00+7n66680 0.0 1017166